Regional Weather Roundup
Issued by NWS

Home | Current Version | Previous Version | Text Only | Print | Product List | Glossary On
Versions: 1 2 3 4 5 6 7 8 9 10 11 12 13 14 15 16 17 18 19 20 21 22 23 24 25 26 27 28 29 30 31 32 33 34 35 36 37 38 39 40 41 42 43 44 45 46 47 48 49 50
000
ASMX46 KSGX 232003
RWRMX

MEXICAN WEATHER ROUNDUP
NATIONAL WEATHER SERVICE SAN DIEGO CA
1200 PM PST SUN NOV 23 2014

BAJA CALIFORNIA

CITY           SKY/WX    TMP DP  RH WIND       PRES   REMARKS
ENSENADA NW      N/A     68  32  26 SE3       30.01F
LA PAZ         MOSUNNY   77  52  41 N8        29.93
LORETO         SUNNY     75  57  53 NE12      29.91
MEXICALI       MOSUNNY   75  12   9 N23       30.12
S.J. DEL CABO  MOSUNNY   82  54  36 CALM      29.90
TIJUANA        CLOUDY    70  43  37 NW10      30.10

NORTHWESTERN MEXICO

CITY           SKY/WX    TMP DP  RH WIND       PRES   REMARKS
CHIHUAHUA      MOSUNNY   72  30  21 N7        29.90
CULIACAN       MOSUNNY   84  63  48 W9        29.89
GUAYMAS        SUNNY     81  54  39 S12       29.89
HERMOSILLO     SUNNY     79  41  25 CALM      29.98
JUAREZ         MOSUNNY   63  36  36 W23G35    29.83
LOS MOCHIS     SUNNY     81  46  30 CALM      29.89
OBREGON        SUNNY     81  45  28 W7        29.89

NORTHEASTERN MEXICO

CITY           SKY/WX    TMP DP  RH WIND       PRES   REMARKS
MATAMOROS      SUNNY     84  63  48 SE7       29.70
MONCLOVA       MOSUNNY   82  46  28 W12       29.69
MONTERREY      SUNNY     81  41  24 S7        29.65F
NUEVO LAREDO   MOSUNNY   84  46  26 SW12      29.66
PIEDRAS NEGRAS MOSUNNY   84  45  24 S6        29.64F
REYNOSA        SUNNY     82  52  34 S7        29.65
SALTILLO       SUNNY     77  43  29 W12       29.92F
TORREON        SUNNY     75  28  17 SE7       29.89F
VICTORIA       MOSUNNY   82  57  42 E3        29.71

WESTERN MEXICO

CITY           SKY/WX    TMP DP  RH WIND       PRES   REMARKS
AGUASCALIENTES MOSUNNY   70  28  21 SW9       30.12
COLIMA         MOSUNNY   81  66  61 SW12      29.94
DURANGO        PTSUNNY   77  16  10 SW12      30.04F
GUADALAJARA    MOSUNNY   77  41  27 W8        30.08
MANZANILLO     MOSUNNY   88  77  70 SW12      29.81  HX 100
MAZATLAN       PTSUNNY   81  61  50 SW9       29.84
PTO. VALLARTA  MOSUNNY   81  72  74 SW10      29.85
TEPIC          PTSUNNY   81  54  39 SW9       30.01
URUAPAN        MOSUNNY   73  59  60 S12       30.09
ZACATECAS      MOSUNNY   73  28  19 W12G23    30.11

CENTRAL MEXICO

CITY           SKY/WX    TMP DP  RH WIND       PRES   REMARKS
CUERNAVACA       N/A    N/A N/A N/A MISG        N/A
LEON           MOSUNNY   73  41  31 W14       30.18F
MEXICO CITY    MOSUNNY   75  30  19 VRB3      30.16F
MORELIA        MOSUNNY   77  36  22 N7        30.10
POZA RICA      PTSUNNY   90  73  58 NE7       29.74  HX  98
PUEBLA         MOSUNNY   72  50  46 S15       30.18
QUERETARO      MOSUNNY   73  43  33 W13       30.14
S. LUIS POTOSI MOSUNNY   79  34  19 NW16      30.04
TAMPICO        MOSUNNY   79  70  73 NE9       29.71F
TOLUCA         SUNNY     72  27  18 SE3       30.24F
VERACRUZ       SUNNY     86  72  62 S8        29.71

SOUTHERN MEXICO

CITY           SKY/WX    TMP DP  RH WIND       PRES   REMARKS
ACAPULCO       SUNNY     86  77  74 SW7       29.79  HX  97
B. DE HUATULCO MOSUNNY   90  77  66 W12       29.81  HX 102
MINATITLAN     SUNNY     91  79  66 S17       29.69  HX 107
OAXACA         MOSUNNY   81  55  41 S8        30.05
PTO. ESCONDIDO SUNNY     84  75  74 W12       29.94
TAPACHULA      MOSUNNY   88  75  66 SW12      29.79F HX  97
TUX. GUTIERREZ SUNNY     90  66  45 NE8       29.80F
VILLAHERMOSA   SUNNY     86  73  66 CALM      29.75F
ZIHUATANEJO    MOSUNNY   88  75  66 SW8       29.81  HX  97

YUCATAN PENINSULA

CITY           SKY/WX    TMP DP  RH WIND       PRES   REMARKS
CAMPECHE       MOSUNNY   91  73  55 S14       29.71F HX 100
CANCUN         PTSUNNY   84  73  70 SE16      29.83F
CHETUMAL       MOSUNNY   84  73  70 E14       29.80F
C. DEL CARMEN  MOSUNNY   88  73  62 SE18      29.72  HX  96
COZUMEL        MOSUNNY   81  75  83 SE8       29.84F
MERIDA         PTSUNNY   90  73  58 SE18      29.79S HX  98

$$



USA.gov is the U.S. government's official web portal to all federal, state and local government web resources and services.